TimeCST,TemperatureF,Dew PointF,Humidity,Sea Level PressureIn,VisibilityMPH,Wind Direction,Wind SpeedMPH,Gust SpeedMPH,PrecipitationIn,Events,Conditions,WindDirDegrees,DateUTC
12:52 AM,37.9,32.0,79,30.08,10.0,WNW,3.5,-,N/A,,Clear,290,2013-11-18 06:52:00
1:52 AM,35.1,30.0,82,30.10,10.0,NNW,6.9,-,N/A,,Clear,330,2013-11-18 07:52:00
2:52 AM,34.0,28.9,82,30.10,10.0,Calm,Calm,-,N/A,,Clear,0,2013-11-18 08:52:00
3:52 AM,32.0,27.0,82,30.14,10.0,WNW,4.6,-,N/A,,Clear,300,2013-11-18 09:52:00
4:52 AM,30.9,26.1,82,30.15,10.0,NNW,5.8,-,N/A,,Clear,330,2013-11-18 10:52:00
5:52 AM,30.0,25.0,82,30.17,10.0,NNW,6.9,-,N/A,,Clear,330,2013-11-18 11:52:00
6:52 AM,28.9,25.0,85,30.20,10.0,North,4.6,-,N/A,,Clear,350,2013-11-18 12:52:00
7:52 AM,30.9,26.1,82,30.22,10.0,NNE,3.5,-,N/A,,Clear,20,2013-11-18 13:52:00
8:52 AM,35.1,28.0,76,30.25,10.0,South,3.5,-,N/A,,Clear,170,2013-11-18 14:52:00
9:52 AM,41.0,28.9,62,30.27,10.0,South,3.5,-,N/A,,Partly Cloudy,190,2013-11-18 15:52:00
10:52 AM,43.0,28.0,56,30.28,10.0,SSW,5.8,-,N/A,,Partly Cloudy,210,2013-11-18 16:52:00
11:52 AM,46.0,28.0,50,30.26,10.0,Calm,Calm,-,N/A,,Scattered Clouds,0,2013-11-18 17:52:00
12:52 PM,48.9,28.0,44,30.25,10.0,South,3.5,-,N/A,,Partly Cloudy,180,2013-11-18 18:52:00
1:52 PM,52.0,28.0,40,30.22,10.0,SE,3.5,-,N/A,,Partly Cloudy,130,2013-11-18 19:52:00
2:52 PM,54.0,28.0,37,30.20,10.0,Calm,Calm,-,N/A,,Partly Cloudy,0,2013-11-18 20:52:00
3:52 PM,55.0,28.0,35,30.19,10.0,Calm,Calm,-,N/A,,Partly Cloudy,0,2013-11-18 21:52:00
4:52 PM,50.0,30.0,46,30.20,10.0,East,5.8,-,N/A,,Partly Cloudy,90,2013-11-18 22:52:00
5:52 PM,48.9,28.9,46,30.21,10.0,Calm,Calm,-,N/A,,Partly Cloudy,0,2013-11-18 23:52:00
6:52 PM,45.0,30.0,56,30.20,10.0,Calm,Calm,-,N/A,,Partly Cloudy,0,2013-11-19 00:52:00
7:52 PM,41.0,28.9,62,30.22,10.0,SE,6.9,-,N/A,,Partly Cloudy,140,2013-11-19 01:52:00
8:52 PM,39.9,28.9,65,30.22,10.0,SE,3.5,-,N/A,,Partly Cloudy,130,2013-11-19 02:52:00
9:52 PM,39.0,28.9,67,30.22,10.0,SSE,4.6,-,N/A,,Clear,160,2013-11-19 03:52:00
10:52 PM,39.0,28.0,65,30.22,10.0,Calm,Calm,-,N/A,,Clear,0,2013-11-19 04:52:00
11:52 PM,35.1,28.0,76,30.22,10.0,SSE,5.8,-,N/A,,Clear,160,2013-11-19 05:52:00